FLOCK 4BE-1

Last updated on Mon Sep 16 2024 00:02:03 GMT+0000 (Coordinated Universal Time)

1 60518U 24149BC 24258.88366468 .00018376 00000+0 86728-3 0 9998 2 60518 97.4426 334.0344 0006466 59.7333 300.4541 15.19484771 4410
UTC large
Height (km)
Speed (km/s)
/
Latitude / Longitude
Inclination (degrees)
Orbital Period (minutes)
Azimuth
Elevation
Range (km)
Doppler Factor

Next 0 passes for location: London (51.5072 / 0.1276)

Sorry there are no passes over London.